Binghamton, NY

8:19 AM EDT on April 29, 2017 (GMT -0400)
Binghamton Regional-Link

Weather History for KBGM - April, 2013

Change the Weather History Date:

Wednesday, April 24, 2013

  Actual Average Record
Temperature  
Mean Temperature 53 °F 48 °F  
Max Temperature 68 °F 58 °F 82 °F (1960)
Min Temperature 38 °F 39 °F 26 °F (1956)
Degree Days  
Heating Degree Days 12 17  
Month to date heating degree days 530 510  
Since 1 July heating degree days 6485 6706  
Cooling Degree Days 0 0  
Month to date cooling degree days 0 0  
Year to date cooling degree days 0 0  
Growing Degree Days 2 (Base 50)    
Moisture  
Dew Point 44 °F    
Average Humidity 69    
Maximum Humidity 93    
Minimum Humidity 45    
Precipitation  
Precipitation 0.35 in 0.11 in 1.74 in (1961)
Month to date precipitation 3.23 2.76  
Year to date precipitation 9.68 10.51  
Snow  
Snow 0.00 in 0.10 in 3.80 in (1967)
Month to date snowfall 0.9 3.9  
Since 1 July snowfall 69.1 82.9  
Snow Depth 0.00 in    
Sea Level Pressure  
Sea Level Pressure 29.88 in    
Wind  
Wind Speed 10 mph (SSW)    
Max Wind Speed 31 mph    
Max Gust Speed 39 mph    
Visibility 8 miles    
Events Rain    
T = Trace of Precipitation, MM = Missing Value Source: NWS Daily Summary

Daily Weather History Graph

Daily Weather History Graph

Search for Another Location

Airport or City:

Trip Planner

Search our weather history database for the weather conditions in past years. The results will help you decide how hot, cold, wet, or windy it might be!

Date:

Astronomy

Apr. 24, 2013 Rise Set
Actual Time 6:09 AM EDT 7:55 PM EDT
Civil Twilight 5:39 AM EDT 8:25 PM EDT
Nautical Twilight 5:02 AM EDT 9:02 PM EDT
Astronomical Twilight 4:23 AM EDT 9:41 PM EDT
Moon 6:55 PM EDT (4/24) 5:12 AM EDT (4/24)
Length of Visible Light 14h 46m
Length of Day
13h 46m
Waxing Gibbous, 98% of the Moon is Illuminated
Apr 24
Waxing Gibbous
Apr 25
Full
May 2
Last Quarter
May 9
New
May 18
First Quarter

Hourly Weather History & Observations

Time (EDT) Temp. Windchill Dew Point Humidity Pressure Visibility Wind Dir Wind Speed Gust Speed Precip Events Conditions
12:53 AM 41.0 °F 35.8 °F 37.0 °F 86% 30.07 in 10.0 mi SE 8.1 mph - N/A   Clear
1:53 AM 41.0 °F 35.8 °F 37.0 °F 86% 30.04 in 10.0 mi SSE 8.1 mph - N/A   Clear
2:53 AM 39.0 °F 34.0 °F 36.0 °F 89% 30.02 in 10.0 mi SE 6.9 mph - N/A   Clear
3:53 AM 39.9 °F 34.5 °F 37.0 °F 89% 30.01 in 10.0 mi SSE 8.1 mph - N/A   Clear
4:53 AM 39.0 °F 34.0 °F 36.0 °F 89% 30.01 in 10.0 mi SSE 6.9 mph - N/A   Clear
5:53 AM 37.4 °F 32.1 °F 35.6 °F 93% 29.99 in 10.0 mi SSE 6.9 mph - N/A   Clear
6:53 AM 39.9 °F 35.8 °F 37.9 °F 93% 30.00 in 10.0 mi South 5.8 mph - N/A   Clear
7:53 AM 44.1 °F 40.8 °F 39.0 °F 82% 29.99 in 10.0 mi South 5.8 mph - N/A   Overcast
8:53 AM 48.0 °F - 39.9 °F 74% 29.97 in 10.0 mi South 9.2 mph 18.4 mph N/A   Scattered Clouds
9:53 AM 50.0 °F - 39.9 °F 68% 29.95 in 10.0 mi South 11.5 mph 17.3 mph N/A   Overcast
10:53 AM 51.1 °F - 41.0 °F 68% 29.93 in 10.0 mi South 8.1 mph - 0.00 in   Overcast
11:53 AM 57.0 °F - 42.1 °F 57% 29.90 in 10.0 mi South 9.2 mph - 0.00 in   Clear
12:53 PM 62.1 °F - 44.1 °F 52% 29.85 in 10.0 mi SSW 10.4 mph 17.3 mph N/A   Clear
1:53 PM 66.0 °F - 45.0 °F 47% 29.81 in 10.0 mi SSW 15.0 mph 24.2 mph N/A   Clear
2:53 PM 66.0 °F - 46.0 °F 48% 29.78 in 10.0 mi SSW 8.1 mph - N/A   Overcast
3:53 PM 66.0 °F - 46.9 °F 50% 29.77 in 10.0 mi SW 9.2 mph 19.6 mph N/A   Overcast
4:53 PM 64.9 °F - 48.9 °F 56% 29.74 in 10.0 mi SSW 6.9 mph - 0.00 in Rain Light Rain
5:53 PM 64.9 °F - 50.0 °F 58% 29.71 in 10.0 mi SE 3.5 mph - 0.00 in   Overcast
6:28 PM 57.2 °F - 51.8 °F 82% 29.78 in 1.8 mi West 23.0 mph 39.1 mph 0.00 in Rain Heavy Rain
6:39 PM 55.4 °F - 53.6 °F 94% 29.79 in 3.0 mi West 18.4 mph 24.2 mph 0.10 in Rain Rain
6:51 PM 55.4 °F - 53.6 °F 94% 29.79 in 3.0 mi WSW 13.8 mph 23.0 mph 0.14 in Rain Light Rain
6:53 PM 55.9 °F - 53.1 °F 90% 29.80 in 3.0 mi WSW 11.5 mph - 0.14 in Rain Light Rain
7:53 PM 55.0 °F - 53.1 °F 93% 29.75 in 5.0 mi South 10.4 mph 23.0 mph 0.03 in Rain Light Rain
8:53 PM 55.9 °F - 52.0 °F 87% 29.75 in 10.0 mi South 8.1 mph - 0.01 in   Overcast
9:53 PM 53.1 °F - 50.0 °F 89% 29.80 in 2.5 mi WNW 23.0 mph 36.8 mph 0.04 in Rain Heavy Rain
10:01 PM 51.8 °F - 48.2 °F 88% 29.80 in 2.5 mi WNW 17.3 mph 34.5 mph 0.07 in Rain Rain
10:41 PM 48.2 °F - 44.6 °F 87% 29.85 in 10.0 mi WNW 15.0 mph 20.7 mph 0.13 in Rain Light Rain
10:53 PM 46.9 °F - 42.1 °F 83% 29.86 in 10.0 mi WNW 15.0 mph 26.5 mph 0.13 in Rain Light Rain
11:16 PM 44.6 °F 39.2 °F 39.2 °F 81% 29.89 in 10.0 mi WNW 10.4 mph 19.6 mph 0.00 in   Overcast
11:53 PM 42.1 °F 35.2 °F 37.0 °F 82% 29.94 in 10.0 mi West 12.7 mph 23.0 mph 0.00 in   Overcast